Location: Observatoire
(46.1952°N, 5.3391°E)
Time: 06:21:03
(UTC+01:00)

Explorer 7 - Pass Details

Date: 22 February 2026
Orbit: 430 x 542 km, 50.2° (Epoch: 5 March)

Event Time Altitude Azimuth Distance (km) Brightness Sun altitude
Rises 20:41:21 0° 284° (WNW) 2,536 11.6 -26.0°
Reaches altitude 10° 20:44:10 10° 262° (W) 1,679 10.1 -26.4°
Maximum altitude 20:46:29 16° 224° (SW) 1,383 9.1 -26.8°
Enters shadow 20:46:46 15° 218° (SW) 1,390 9.1 -26.9°
Drops below altitude 10° 20:48:50 10° 186° (S) 1,714 - -27.2°
Sets 20:51:45 0° 164° (SSE) 2,620 - -27.7°
